Oxford, MS

2:03 AM CDT on September 23, 2019 (GMT -0500)
University-Oxford

Weather History for KUOX - July, 2019

Change the Weather History Date:

Saturday, July 20, 2019

  Actual Average Record
Temperature  
Mean Temperature 82 °F -  
Max Temperature 91 °F 91 °F 100 °F (1930)
Min Temperature 73 °F 68 °F 56 °F (1984)
Cooling Degree Days 17    
Growing Degree Days 32 (Base 50)    
Moisture  
Dew Point 73 °F    
Average Humidity 86    
Maximum Humidity 100    
Minimum Humidity 55    
Precipitation  
Precipitation 0.00 in - - ()
Sea Level Pressure  
Sea Level Pressure 30.02 in    
Wind  
Wind Speed 5 mph (SSW)    
Max Wind Speed 14 mph    
Max Gust Speed 29 mph    
Visibility 10 miles    
Events Thunderstorm    
Averages and records for this station are not official NWS values.
T = Trace of Precipitation, MM = Missing Value Source: NWS Daily Summary

Daily Weather History Graph

Daily Weather History Graph

Search for Another Location

Airport or City:

Astronomy

Jul. 20, 2019 Rise Set
Actual Time 6:00 AM CDT 8:08 PM CDT
Civil Twilight 5:31 AM CDT 8:36 PM CDT
Nautical Twilight 4:57 AM CDT 9:11 PM CDT
Astronomical Twilight 4:19 AM CDT 9:48 PM CDT
Moon 10:43 PM CDT (7/20) 9:17 AM CDT (7/20)
Length of Visible Light 15h 04m
Length of Day
14h 08m
Waning Gibbous, 87% of the Moon is Illuminated
Jul 20
Waning Gibbous
Jul 24
Last Quarter
Jul 31
New
Aug 7
First Quarter
Aug 15
Full

Hourly Weather History & Observations

Time (CDT) Temp. Heat Index Dew Point Humidity Pressure Visibility Wind Dir Wind Speed Gust Speed Precip Events Conditions
12:15 AM 77.0 °F - 73.4 °F 89% 30.02 in 10.0 mi SSE 6.9 mph - N/A   Clear
12:35 AM 77.0 °F - 73.4 °F 89% 30.01 in 10.0 mi South 4.6 mph - N/A   Clear
12:55 AM 75.2 °F - 73.4 °F 94% 30.01 in 10.0 mi Variable 5.8 mph - N/A   Clear
1:15 AM 75.2 °F - 71.6 °F 89% 30.01 in 10.0 mi SSE 9.2 mph - N/A   Clear
1:35 AM 75.2 °F - 71.6 °F 89% 30.01 in 10.0 mi Variable 5.8 mph 13.8 mph N/A   Clear
1:55 AM 75.2 °F - 71.6 °F 89% 30.01 in 10.0 mi Calm Calm - N/A   Clear
2:15 AM 73.4 °F - 71.6 °F 94% 30.01 in 10.0 mi SE 4.6 mph - N/A   Clear
2:35 AM 73.4 °F - 71.6 °F 94% 30.02 in 10.0 mi SE 3.5 mph - N/A   Clear
2:55 AM 73.4 °F - 71.6 °F 94% 30.02 in 10.0 mi SE 3.5 mph - N/A   Clear
3:15 AM 73.4 °F - 71.6 °F 94% 30.02 in 9.0 mi Calm Calm - N/A   Clear
3:35 AM 73.4 °F - 71.6 °F 94% 30.03 in 10.0 mi Calm Calm - N/A   Clear
3:55 AM 73.4 °F - 71.6 °F 94% 30.02 in 10.0 mi Variable 4.6 mph - N/A   Clear
4:15 AM 73.4 °F - 71.6 °F 94% 30.03 in 10.0 mi Variable 4.6 mph - N/A   Clear
4:35 AM 73.4 °F - 71.6 °F 94% 30.03 in 10.0 mi Calm Calm - N/A   Clear
4:55 AM 73.4 °F - 71.6 °F 94% 30.04 in 10.0 mi Variable 4.6 mph - N/A   Clear
5:15 AM 73.4 °F - 71.6 °F 94% 30.05 in 10.0 mi Variable 3.5 mph - N/A   Partly Cloudy
5:35 AM 73.4 °F - 71.6 °F 94% 30.05 in 10.0 mi Calm Calm - N/A   Clear
5:55 AM 73.4 °F - 71.6 °F 94% 30.06 in 10.0 mi SSE 3.5 mph - N/A   Clear
6:15 AM 73.4 °F - 73.4 °F 100% 30.07 in 8.0 mi SSE 4.6 mph - N/A   Partly Cloudy
6:35 AM 73.4 °F - 73.4 °F 100% 30.07 in 8.0 mi Calm Calm - N/A   Partly Cloudy
6:55 AM 75.2 °F - 73.4 °F 94% 30.07 in 9.0 mi SSE 4.6 mph - N/A   Clear
7:15 AM 75.2 °F - 73.4 °F 94% 30.08 in 10.0 mi South 4.6 mph - N/A   Clear
7:35 AM 75.2 °F - 73.4 °F 94% 30.08 in 9.0 mi Calm Calm - N/A   Clear
7:55 AM 75.2 °F - 73.4 °F 94% 30.08 in 9.0 mi Calm Calm - N/A   Clear
8:15 AM 77.0 °F - 75.2 °F 94% 30.08 in 10.0 mi Calm Calm - N/A   Clear
8:35 AM 77.0 °F - 75.2 °F 94% 30.08 in 9.0 mi Variable 3.5 mph - N/A   Clear
8:55 AM 78.8 °F - 75.2 °F 89% 30.08 in 9.0 mi Calm Calm - N/A   Clear
9:15 AM 82.4 °F 89.5 °F 75.2 °F 79% 30.07 in 9.0 mi WSW 5.8 mph - N/A   Clear
9:35 AM 84.2 °F 92.3 °F 75.2 °F 74% 30.06 in 10.0 mi Calm Calm - N/A   Clear
9:55 AM 84.2 °F 92.3 °F 75.2 °F 74% 30.06 in 10.0 mi Variable 5.8 mph - N/A   Partly Cloudy
10:15 AM 86.0 °F 95.1 °F 75.2 °F 70% 30.05 in 9.0 mi WSW 5.8 mph - N/A   Partly Cloudy
10:35 AM 86.0 °F 95.1 °F 75.2 °F 70% 30.05 in 10.0 mi Variable 4.6 mph - N/A   Partly Cloudy
10:55 AM 87.8 °F 97.6 °F 75.2 °F 66% 30.04 in 10.0 mi WSW 6.9 mph - N/A   Partly Cloudy
11:15 AM 87.8 °F 97.6 °F 75.2 °F 66% 30.04 in 10.0 mi Variable 5.8 mph - N/A   Clear
11:35 AM 87.8 °F 97.6 °F 75.2 °F 66% 30.03 in 10.0 mi Variable 6.9 mph - N/A   Clear
11:55 AM 86.0 °F 93.4 °F 73.4 °F 66% 30.03 in 10.0 mi Variable 4.6 mph - N/A   Mostly Cloudy
12:15 PM 87.8 °F 95.6 °F 73.4 °F 62% 30.03 in 9.0 mi Variable 3.5 mph - N/A   Mostly Cloudy
12:35 PM 86.0 °F 95.1 °F 75.2 °F 70% 30.02 in 10.0 mi West 4.6 mph - N/A   Mostly Cloudy
12:55 PM 86.0 °F 95.1 °F 75.2 °F 70% 30.02 in 10.0 mi West 4.6 mph - N/A   Mostly Cloudy
1:15 PM 86.0 °F 93.4 °F 73.4 °F 66% 30.01 in 9.0 mi SW 4.6 mph - N/A   Partly Cloudy
1:35 PM 86.0 °F 95.1 °F 75.2 °F 70% 30.01 in 9.0 mi Variable 3.5 mph - N/A   Clear
1:55 PM 86.0 °F 95.1 °F 75.2 °F 70% 30.01 in 9.0 mi Variable 3.5 mph - N/A   Clear
2:15 PM 87.8 °F 95.6 °F 73.4 °F 62% 30.01 in 10.0 mi SW 3.5 mph - N/A   Clear
2:35 PM 89.6 °F 99.8 °F 75.2 °F 62% 30.00 in 9.0 mi WSW 6.9 mph - N/A   Clear
2:55 PM 91.4 °F 102.5 °F 75.2 °F 59% 30.00 in 10.0 mi SW 6.9 mph - N/A Thunderstorm Partly Cloudy
3:15 PM 91.4 °F 100.1 °F 73.4 °F 55% 30.00 in 10.0 mi West 5.8 mph 11.5 mph N/A   Scattered Clouds
3:35 PM 89.6 °F 98.2 °F 73.4 °F 59% 29.99 in 9.0 mi SW 6.9 mph - N/A   Partly Cloudy
3:55 PM 86.0 °F 93.4 °F 73.4 °F 66% 30.00 in 10.0 mi SE 10.4 mph - N/A Thunderstorm Partly Cloudy
4:15 PM 80.6 °F 84.6 °F 71.6 °F 74% 29.99 in 9.0 mi SSE 13.8 mph - N/A Thunderstorm Mostly Cloudy
4:35 PM 77.0 °F - 71.6 °F 83% 30.01 in 8.0 mi South 13.8 mph 28.8 mph N/A Thunderstorm Overcast
4:55 PM 75.2 °F - 71.6 °F 89% 30.04 in 8.0 mi WSW 10.4 mph 19.6 mph N/A Thunderstorm Drizzle
5:15 PM 75.2 °F - 73.4 °F 94% 30.04 in 9.0 mi West 5.8 mph 12.7 mph N/A Thunderstorm Drizzle
5:35 PM 75.2 °F - 73.4 °F 94% 30.03 in 5.0 mi WSW 5.8 mph 15.0 mph N/A Thunderstorm Drizzle
5:55 PM 75.2 °F - 71.6 °F 89% 30.01 in 10.0 mi WSW 6.9 mph - N/A   Partly Cloudy
6:15 PM 75.2 °F - 71.6 °F 89% 30.00 in 9.0 mi Variable 3.5 mph - N/A Thunderstorm Clear
6:35 PM 75.2 °F - 71.6 °F 89% 30.00 in 10.0 mi Calm Calm - N/A   Clear
6:55 PM 75.2 °F - 71.6 °F 89% 29.99 in 10.0 mi WSW 4.6 mph - N/A   Clear
7:15 PM 75.2 °F - 71.6 °F 89% 29.99 in 10.0 mi Calm Calm - N/A   Clear
7:35 PM 75.2 °F - 71.6 °F 89% 29.99 in 10.0 mi Calm Calm - N/A   Mostly Cloudy
7:55 PM 75.2 °F - 71.6 °F 89% 30.00 in 10.0 mi North - - N/A   Scattered Clouds
8:15 PM 75.2 °F - 71.6 °F 89% 29.99 in 10.0 mi Calm Calm - N/A   Clear
8:35 PM 75.2 °F - 73.4 °F 94% 29.99 in 10.0 mi Variable 6.9 mph - N/A   Clear
8:55 PM 73.4 °F - 73.4 °F 100% 30.00 in 10.0 mi Variable 3.5 mph - N/A   Clear
9:15 PM 73.4 °F - 73.4 °F 100% 30.01 in 10.0 mi Variable 6.9 mph - N/A   Scattered Clouds
9:35 PM 73.4 °F - 73.4 °F 100% 30.01 in 10.0 mi Variable 4.6 mph - N/A   Mostly Cloudy
9:55 PM 73.4 °F - 73.4 °F 100% 30.01 in 10.0 mi South 4.6 mph 12.7 mph N/A   Overcast
10:15 PM 73.4 °F - 73.4 °F 100% 30.01 in 10.0 mi Variable 5.8 mph 12.7 mph N/A   Overcast
10:35 PM 73.4 °F - 73.4 °F 100% 30.01 in 10.0 mi SSE 6.9 mph 12.7 mph N/A   Overcast
10:55 PM 73.4 °F - 73.4 °F 100% 30.00 in 10.0 mi South 5.8 mph - N/A   Mostly Cloudy
11:15 PM 73.4 °F - 73.4 °F 100% 30.00 in 10.0 mi Variable 4.6 mph - N/A   Scattered Clouds
11:35 PM 73.4 °F - 73.4 °F 100% 29.99 in 10.0 mi South 8.1 mph - N/A   Scattered Clouds
11:55 PM 73.4 °F - 73.4 °F 100% 29.99 in 10.0 mi Variable 4.6 mph - N/A   Mostly Cloudy